Weather in Maleme

Greece     35°31′18″N   23°51′00″E
temp.,
°C
wind,
m/s
gust,
m/s
humid.,
%
clouds,
%
prec.,
mm/h
press.,
hPa
HPBL,
m
6 may, thu
thu600:00+19ssw3439100 0.0 101442
03:00+19ssw444160 0.0 101339
06:00+18sw33515 0.0 101441
09:00+21wsw474686 0.0 1015384
12:00+24w4641100 0.0 1014547
15:00+24wnw464767 0.0 1016647
18:00+22w3350100 0.0 1015364
21:00+18w2364100 0.0 101644
7 may, fri
fri700:00+19s1254100 0.0 101514
03:00+19se1147100 0.0 101411
06:00+18se1244100 0.0 101312
09:00+23nw113949 0.0 1015218
12:00+26n343875 0.0 1014501
15:00+27n4541100 0.0 1012520
18:00+26e244052 0.0 1011405
21:00+21ese2350100 0.0 101033
8 may, sat
sat800:00+20w1251100 0.0 101134
03:00+20se4553100 0.0 100881
06:00+20n3563100 0.0 1008118
09:00+21ssw236348 0.0 1007137
12:00+24wnw455212 0.0 1009566
15:00+23nnw34460 0.0 1010547
18:00+22n34470 0.0 1010388
21:00+18ene22660 0.0 101223
9 may, sun
sun900:00+17ene45700 0.0 101478
03:00+18ene59590 0.0 1014306
06:00+16ne614827 0.0 1016721
09:00+18ne8127872 0.0 1018894
12:00+17ne8127677 0.1 1019916
15:00+19ne813585 0.1 10191001
18:00+18ene812560 0.0 1019923
21:00+13e611720 0.0 1020619
10 may, mon
mon1000:00+12ene510740 0.0 1020496
03:00+13ne710780 0.0 1019679
06:00+13ene811722 0.0 1019752
09:00+15ne811600 0.0 1019800
12:00+17ne910550 0.0 1019847
15:00+17ne810500 0.0 1018772
18:00+17ne58480 0.0 1017607
21:00+14e46610 0.0 1017202